{"data":{"norad_id":64946,"epoch":"2026-05-25T02:13:20.847360Z","epoch_age_seconds":70165,"freshness":"FRESH","line1":"1 64946U 25158Q   26145.09260240  .00003716  00000+0  26141-3 0  9994","line2":"2 64946  97.4533   9.0354 0002291  85.9801 274.1688 15.05659482 46852","mean_motion":15.05659482,"eccentricity":0.0002291,"inclination_deg":97.4533,"raan_deg":9.0354,"arg_perigee_deg":85.9801,"mean_anomaly_deg":274.1688,"bstar":0.00026141,"rev_number":4685,"period_min":95.639154617299,"perigee_km":547.89495156808,"apogee_km":551.06918662554,"semimajor_km":6927.6190690968,"source":"CELESTRAK","updated_at":"2026-05-25T13:38:20.633182Z"}}